Tracking 20753 objects as of 7-Jun-2020
HD Live streaming from Space Station
objects crossing your sky now
Track the most recent launched group of Starlink satellites

DELTA 1 DEB

Track DELTA 1 DEB now!
10-day predictions


NORAD ID: 7838
Int'l Code: 1972-058J
Perigee: 673.8 km
Apogee: 1,143.6 km
Inclination: 98.1 °
Period: 103.0 minutes
Semi major axis: 7279 km
RCS: 0.2743 m2 (medium)
Launch date: July 23, 1972
Source: United States (US)
Launch site: AIR FORCE WESTERN TEST RANGE (AFWTR)

Note: This is SATELLITE DEBRIS
aabbcc
Your satellite tracking list
Your tracking list is empty




NASA's NSSDC Master Catalog

Two Line Element Set (TLE):
1  7838U 72058J   20158.85353681 +.00000206 +00000-0 +11288-3 0  9994
2  7838 098.1045 113.4228 0322697 256.3782 100.1259 13.97764112262164
Source of the keplerian elements: AFSPC